Погода в Нагорье

Россия / Ярославская область     56°55′07″N   38°15′42″E
темп.,
°C
ветер,
м/с
пор.,
м/с
влажн.,
%
обл.,
%
осадки,
мм/ч
давл.,
гПа
погр.,
м
8 марта, пн
пн800:00−10з479080 0.7 993126
03:00−12зюз349475 0.7 99388
06:00−10юз2296100 0.5 99456
09:00−9ссз3695100 0.8 996286
12:00−8сз579293 0.0 1000517
15:00−8ссз688796 0.1 1003986
18:00−11ссз4893100 0.1 1006307
21:00−13ссз4995100 0.2 1009221
9 марта, вт
вт900:00−17ссз369883 0.0 1011100
03:00−20ссз3410085 0.1 101364
06:00−22ссз3410082 0.0 101567
09:00−21ссз369785 0.0 1016237
12:00−17ссз459288 0.0 1018400
15:00−16ссз579093 0.0 1019507
18:00−19ссз3695100 0.0 1020151
21:00−24с369674 0.0 102397
10 марта, ср
ср1000:00−25с349946 0.0 102552
03:00−27с349823 0.0 102647
06:00−29с34980 0.0 102842
09:00−25с35950 0.0 1029185
12:00−19сз348513 0.0 1029330
15:00−16сз46876 0.0 1029366
18:00−18сз35900 0.0 102988
21:00−20сз349312 0.0 103054
11 марта, чт
чт1100:00−20сз239981 0.0 103121
03:00−21сз2310089 0.0 103120
06:00−22зсз22100100 0.0 103220
09:00−18зсз239795 0.0 1033115
12:00−13зсз228988 0.0 1032319
15:00−10з238394 0.0 1032505
18:00−13юз2290100 0.0 103021
21:00−16ююз339355 0.0 103121
12 марта, пт
пт1200:00−17ююз34920 0.0 103055
03:00−19ююз35880 0.0 103087
06:00−20ююз47860 0.0 1029115
09:00−16ю510780 0.0 1029301
12:00−10ю610780 0.0 1027490
15:00−7ю610840 0.0 1025641
18:00−9ю6138738 0.0 1023482
21:00−12ю6168719 0.0 1023444